Regional Weather Roundup
Issued by NWS

Home | Current Version | Previous Version | Text Only | Print | Product List | Glossary Off
Versions: 1 2 3 4 5 6 7 8 9 10 11 12 13 14 15 16 17 18 19 20 21 22 23 24 25 26 27 28 29 30 31 32 33 34 35 36 37 38 39 40 41 42 43 44 45 46 47 48 49 50

000
ASUS45 KCYS 252310
RWRWY

WYOMING REGIONAL WEATHER ROUNDUP
NATIONAL WEATHER SERVICE CHEYENNE WY
500 PM MDT WED MAR 25 2015

NOTE:  "FAIR" INDICATES FEW OR NO CLOUDS BELOW 12,000 FEET
WITH NO SIGNIFICANT WEATHER AND/OR OBSTRUCTIONS TO VISIBILITY.

WYZ001-260000-
YELLOWSTONE NATIONAL PARK

CITY           SKY/WX    TMP DP  RH WIND       PRES   REMARKS
LK YELLOWSTONE   N/A     31  16  54 VRB6      30.28S WCI  25
W YELLOWSTONE  NOT AVBL

$$
WYZ002>013-054>058-071-098>099-260000-
NORTHERN WYOMING

CITY           SKY/WX    TMP DP  RH WIND       PRES   REMARKS
JACKSON        MOSUNNY   37  19  48 SW10      30.29S WCI  30
CODY           FAIR      48  16  27 W12G25    30.16F
GREYBULL       PTSUNNY   52  18  26 SE3       30.15F
WORLAND        FAIR      50  19  29 CALM      30.17F
SHERIDAN       FAIR      50  25  37 NW14G21   30.16S
BUFFALO        PTSUNNY   41  30  65 SE5       30.18S
GILLETTE       FAIR      43  28  55 N8        30.18S
HULETT         FAIR      41  27  56 NW9       30.19F
NEWCASTLE      FAIR      43  21  42 N14G21    30.21F

$$
WYZ014>020-022>026-101>103-260000-
CENTRAL WYOMING

CITY           SKY/WX    TMP DP  RH WIND       PRES   REMARKS
BIG PINEY      FAIR      40  10  29 N15G25    30.27F WCI  32
PINEDALE       FAIR      37  18  44 NW20      30.27S WCI  27
DUBOIS         FAIR      36   9  32 NW20G25   30.21S WCI  25
LANDER         FAIR      48  17  29 W8        30.16F
RIVERTON       PTSUNNY   47  22  37 SE6       30.18F
CASPER         PTSUNNY   46  20  35 W16G23    30.20F
DOUGLAS        PTSUNNY   45  28  51 NW20      30.21S

$$
WYZ021-027>030-104>119-260000-
SOUTHERN WYOMING

CITY           SKY/WX    TMP DP  RH WIND       PRES   REMARKS
EVANSTON       FAIR      43  14  31 W9        30.30S
KEMMERER       FAIR      37  19  48 W15G23    30.30S WCI  28
FORT BRIDGER   FAIR      44  19  36 W15G26    30.31F
ROCK SPRINGS   FAIR      43  14  31 W13       30.24F
DIXON          MOCLDY    44  18  34 W7        30.27S
RAWLINS        FAIR      41  18  39 W12       30.22F
SARATOGA       FAIR      41  16  36 NW13G18   30.23F
LARAMIE        FAIR      38  21  50 N21G32    30.18R WCI  28
CHEYENNE       PTSUNNY   41  27  57 N16       30.18R
TORRINGTON     PTSUNNY   48  20  32 NW14G24   30.18S
PINE BLUFFS    MOCLDY    45  25  45 N15       30.19S

$$



USA.gov is the U.S. government's official web portal to all federal, state and local government web resources and services.